Wind_Speed
11 12 3 4 7 5 5 6 3 8 8 4 9 0 10 10 8 4 16 12 16 16 15 15 13 13 13 14 15 16 16 17 16 16 16 16 16 17 16 15 14 12 12 12 12 12 12 12 12
10 9 4 6 6 6 8 9 8 5 9 10 9 4 4 7 7 12 18 13 17 15 15 14 15 14 14 15 16 17 17 16 15 15 15 15 14 14 13 11 10 10 10 10 10 9 10 10 11
9 6 7 4 3 1 3 10 8 12 8 8 5 5 5 5 11 13 12 19 17 15 13 16 16 15 15 16 17 17 17 15 13 12 13 13 11 10 9 7 7 7 7 6 7 6 7 7 8
4 4 6 9 4 3 5 5 11 12 9 6 7 12 12 10 6 9 19 19 16 17 13 17 17 16 17 17 17 18 16 14 13 12 11 11 10 8 6 5 4 4 4 4 4 4 5 6 6
4 7 9 8 4 1 3 6 9 7 7 10 9 10 9 7 12 19 19 17 16 16 15 16 18 18 18 18 17 17 15 13 13 12 11 9 9 7 5 4 3 3 2 2 2 2 3 4 6
11 6 9 9 5 3 4 10 8 7 8 9 12 14 6 10 16 18 17 16 14 15 16 15 18 19 19 18 17 17 15 14 12 11 11 9 8 6 6 4 3 2 0 1 2 4 4 5 5
15 8 14 5 6 5 3 12 11 9 10 5 11 7 8 13 17 17 18 17 15 13 14 16 15 18 18 18 17 16 14 13 13 11 10 9 8 6 5 5 3 1 1 3 4 5 5 5 5
13 8 14 11 8 2 6 16 11 10 7 9 7 7 13 21 20 17 15 16 16 13 13 13 16 15 15 16 17 16 15 14 13 12 11 9 6 6 4 3 2 2 3 4 4 5 5 5 5
10 10 13 13 10 7 13 12 9 6 13 7 4 10 21 25 22 19 16 14 13 15 15 16 16 18 15 13 14 15 14 14 12 10 9 8 3 4 1 5 4 4 4 5 5 5 5 5 6
14 13 18 11 6 3 14 14 15 12 15 11 16 20 25 24 23 20 18 15 13 12 11 10 10 12 11 9 9 10 9 6 7 7 10 5 8 7 6 7 7 7 7 6 7 7 7 7 4
19 17 16 9 8 6 8 12 13 12 13 14 19 24 24 23 21 19 17 15 13 13 12 12 13 14 11 9 9 8 7 7 6 9 8 8 6 6 5 5 5 5 9 5 6 7 6 7 7
14 19 14 12 8 9 10 11 10 13 5 10 19 23 23 22 20 19 17 15 13 12 11 10 11 13 12 10 8 9 8 8 6 9 9 8 4 7 8 6 7 7 8 9 8 7 11 9 10
16 12 17 13 12 10 7 12 8 8 11 18 21 21 22 20 19 17 16 15 14 11 11 10 11 12 12 10 9 9 10 8 10 11 11 9 6 10 9 11 11 12 12 11 11 11 13 11 9
10 15 10 10 11 6 13 7 13 10 15 18 19 21 20 19 17 17 15 14 13 13 12 11 10 13 11 13 12 11 11 11 11 12 13 13 14 14 14 13 13 14 14 15 15 16 16 14 11
6 13 9 11 10 6 13 11 13 17 17 18 17 18 18 18 17 15 15 14 13 13 16 16 14 17 16 14 13 12 11 12 12 12 12 12 12 12 11 12 13 14 14 15 16 17 18 15 13
13 14 14 15 11 6 12 18 14 18 19 18 18 17 17 21 18 15 14 16 17 16 18 15 13 15 16 16 14 14 13 12 11 11 11 11 11 11 10 12 14 14 15 16 18 20 21 17 18
11 13 19 13 15 8 15 18 20 19 18 19 19 19 18 18 19 18 16 17 16 15 15 15 14 14 15 15 14 13 12 12 11 12 12 12 11 11 11 13 15 15 17 19 19 16 16 14 13
12 16 9 17 12 13 16 18 12 16 18 19 21 21 20 20 19 17 15 13 15 18 17 15 15 15 15 14 14 13 13 13 13 13 13 13 13 12 13 13 15 17 15 13 11 10 12 12 11
7 12 14 11 11 15 19 19 14 13 17 20 22 22 23 22 19 17 15 16 15 15 17 17 17 18 18 16 12 11 13 15 14 13 11 12 13 13 13 13 8 7 6 5 4 3 5 7 8
12 13 15 11 8 12 17 23 22 18 20 22 22 24 24 23 21 19 18 16 15 15 15 15 16 17 16 14 14 12 13 12 12 12 13 11 11 9 8 6 4 2 2 3 4 4 5 7 9
14 15 13 15 7 14 15 19 22 19 19 22 23 24 25 28 26 24 21 18 16 15 16 16 15 15 16 17 17 16 14 12 11 10 9 8 7 5 4 3 2 3 4 4 5 5 6 7 9
15 14 16 16 14 16 19 17 21 21 20 20 26 27 29 30 27 26 23 20 16 14 13 14 15 15 15 15 12 12 8 7 7 7 7 5 4 3 4 3 3 3 2 4 7 9 10 10 10
15 15 14 15 16 17 18 12 16 19 20 22 26 31 33 31 29 27 24 20 18 16 13 13 13 13 14 15 11 9 9 9 8 7 6 4 3 4 4 4 4 6 6 7 8 9 10 11 11
11 9 13 12 14 17 20 18 16 18 19 18 23 32 31 30 28 25 23 22 20 17 15 14 13 13 12 12 12 12 11 10 8 7 6 6 5 5 5 6 7 7 8 7 8 10 11 12 12
15 15 13 15 15 16 19 20 16 17 12 12 12 12 26 28 28 27 26 24 22 20 17 15 14 14 12 11 10 10 10 8 6 6 6 7 5 5 5 7 7 7 7 8 9 10 12 13 13
14 14 15 23 17 18 18 18 15 1 4 7 11 12 19 27 28 28 26 24 22 20 18 16 15 14 12 11 10 9 9 7 6 7 7 6 6 6 6 7 8 8 8 8 9 9 10 12 11
14 9 11 16 20 18 20 21 9 7 5 2 4 10 19 24 27 27 25 22 21 20 18 17 16 14 13 12 10 9 8 8 7 6 7 7 8 6 6 6 7 8 8 8 8 8 10 10 10
14 13 12 11 19 23 19 19 11 8 4 5 3 9 16 21 24 25 24 22 20 18 18 16 15 14 13 12 10 10 8 7 4 4 7 8 8 9 6 5 6 7 7 8 8 7 9 10 10
11 13 16 16 13 17 18 12 9 9 7 6 6 9 16 22 23 24 22 21 19 18 17 16 14 12 11 10 9 9 8 5 3 2 6 7 7 7 5 5 6 6 7 8 8 9 9 10 10
16 21 22 15 18 17 15 14 7 6 5 3 9 13 18 23 24 23 21 20 19 18 17 15 12 11 9 9 8 7 6 4 4 2 3 5 6 6 4 6 7 6 7 8 9 8 8 10 10
Wind_Direction
338 352 318 256 235 236 108 102 31 130 134 108 135 89 49 33 2 33 142 129 142 144 156 145 146 141 140 142 139 131 128 125 119 117 117 116 114 111 107 104 100 90 81 73 71 67 62 56 52
329 347 283 272 251 221 126 119 119 83 104 117 121 139 68 75 52 118 142 144 143 152 147 144 148 146 146 146 140 134 130 125 121 118 120 119 117 113 108 102 95 84 74 70 71 64 60 52 51
319 338 269 261 278 227 125 133 128 132 144 162 113 74 60 65 106 127 156 146 145 145 146 153 151 151 152 151 143 140 136 130 128 125 124 125 121 116 109 99 87 72 64 68 71 62 54 50 43
308 258 236 249 179 150 328 130 160 137 124 136 134 100 96 83 114 147 136 143 143 143 146 156 154 156 160 154 149 147 144 138 135 134 131 132 132 129 120 107 90 80 70 57 52 43 40 40 36
274 257 260 251 212 57 217 157 168 138 130 141 158 126 99 83 115 132 138 141 151 144 151 158 158 159 162 158 156 155 153 147 143 142 140 141 142 143 144 139 129 112 91 66 31 4 10 20 20
244 263 244 231 200 129 206 182 189 172 137 119 138 125 90 118 132 139 141 143 150 151 137 173 160 162 163 162 161 162 162 157 154 153 154 158 160 160 159 150 147 140 55 344 332 330 338 351 8
246 243 257 275 263 180 216 185 193 169 142 135 148 128 127 137 143 145 144 148 151 156 154 157 160 163 165 165 167 167 168 166 165 166 170 173 173 171 170 171 180 193 286 319 326 324 331 344 352
244 264 256 232 237 120 146 175 170 179 88 145 148 158 159 157 149 144 147 139 158 162 157 158 159 166 163 170 172 173 175 175 175 179 182 178 184 187 204 209 220 292 338 351 351 346 347 353 358
224 239 244 229 230 122 157 166 171 155 145 147 148 140 151 152 149 151 146 153 158 167 170 167 169 170 170 165 190 179 183 183 182 187 192 185 213 231 269 261 277 312 337 354 10 17 16 4 0
218 225 234 250 247 251 172 186 163 167 156 136 120 127 141 149 154 156 160 162 167 167 171 174 175 177 177 175 181 179 199 187 195 204 202 208 230 229 243 274 290 299 316 322 328 331 338 13 343
219 244 236 236 257 276 198 198 170 194 188 166 154 148 150 154 159 163 166 170 168 172 179 177 184 177 179 179 188 192 200 207 217 217 216 230 236 257 262 277 301 308 308 313 323 324 312 310 311
240 230 258 246 268 254 234 190 198 205 85 152 160 155 156 160 161 165 168 167 167 165 175 176 186 189 182 188 186 200 193 204 203 224 228 240 245 258 246 260 284 304 298 298 310 303 309 316 310
228 232 224 250 259 244 231 195 168 140 123 138 148 155 162 162 162 166 166 166 163 163 170 176 178 186 193 191 206 212 211 204 224 232 235 229 229 240 259 268 276 284 291 296 299 300 303 310 313
215 232 235 232 231 216 204 178 169 158 147 147 152 157 163 164 165 164 167 166 161 166 170 183 179 188 189 197 202 207 210 218 221 229 236 242 248 256 257 263 268 279 286 292 298 298 299 300 302
222 212 204 215 208 209 216 197 216 158 160 160 159 159 161 163 170 170 171 169 170 174 180 185 188 197 201 209 210 206 202 214 221 229 231 232 240 248 257 265 273 281 286 291 295 298 302 305 302
210 229 220 180 202 190 201 219 147 164 167 171 168 167 168 177 170 178 178 183 187 188 194 194 193 201 206 205 205 208 211 215 221 230 235 239 236 239 250 263 273 281 283 285 288 292 291 295 295
208 226 222 167 199 179 212 227 142 170 177 178 180 179 176 180 189 192 192 204 205 205 205 206 204 205 209 209 212 223 226 229 234 240 246 248 253 258 259 265 274 275 278 283 289 294 300 301 306
217 229 231 242 173 219 208 232 144 180 191 188 188 186 185 187 191 189 190 189 206 209 213 214 212 218 224 226 228 227 231 227 230 233 240 251 261 267 270 278 282 281 282 288 294 295 304 310 321
288 257 251 225 224 220 233 221 180 185 204 199 196 196 195 193 190 192 190 198 199 203 211 215 220 222 219 215 207 210 217 228 236 245 249 254 261 265 270 275 277 281 281 296 323 333 349 354 8
241 245 244 250 273 223 237 236 243 178 212 212 206 202 201 193 192 190 191 194 197 204 209 214 214 220 213 215 204 203 226 236 241 247 255 251 255 257 254 249 234 176 61 73 67 54 43 7 21
236 246 247 253 196 228 257 251 236 206 219 221 218 213 207 202 196 194 192 194 193 203 212 215 214 214 212 214 221 226 232 235 234 233 238 235 235 224 211 176 134 76 59 44 58 67 68 37 36
254 212 256 249 237 247 205 253 227 223 213 219 220 216 213 207 204 197 194 192 186 186 184 195 199 203 210 206 199 197 186 179 188 201 215 195 175 171 184 153 117 120 87 73 66 70 71 75 56
251 260 240 252 252 248 241 254 258 251 224 208 225 223 218 209 204 198 192 185 178 173 170 173 176 178 185 187 184 185 178 189 157 154 154 146 139 123 116 119 109 105 90 79 73 72 73 65 65
256 229 234 252 254 245 242 254 243 247 221 242 240 227 217 207 200 197 189 177 170 165 160 157 162 169 174 175 174 168 165 157 156 155 127 119 105 86 98 93 94 100 93 87 77 71 67 68 64
235 246 251 238 232 246 248 242 244 249 272 225 265 293 202 199 194 191 184 173 165 162 157 152 148 146 149 150 152 157 162 156 154 133 149 137 124 101 106 104 106 97 91 82 74 64 57 58 56
304 251 257 265 260 265 255 245 246 267 34 309 278 258 189 188 190 188 184 174 164 160 157 153 147 142 141 137 137 138 132 134 139 150 151 147 141 125 108 103 106 97 85 76 73 60 60 53 47
285 251 284 291 280 276 273 267 154 143 119 348 282 202 180 185 182 181 180 172 164 160 156 152 146 143 141 140 137 132 125 123 164 151 133 141 138 126 114 101 98 91 80 74 61 56 59 55 51
250 288 276 238 262 266 265 264 287 134 79 91 140 177 177 179 177 177 174 166 160 158 152 149 144 143 140 134 128 120 114 111 122 146 160 151 163 153 124 101 95 96 84 73 80 49 47 47 46
267 248 247 270 273 282 278 282 62 79 67 104 142 168 173 174 174 172 169 161 156 153 152 148 146 144 141 141 138 124 123 126 129 167 159 151 151 150 132 116 99 84 81 77 67 59 48 45 36
283 286 286 267 263 252 261 277 69 78 46 111 143 156 168 168 170 168 164 157 154 152 153 150 148 147 146 151 140 122 120 109 71 51 157 155 143 134 143 120 108 101 81 70 65 62 53 46 35
Height
1529 1527 1526 1527 1520 1500 1509 1514 1513 1517 1518 1523 1524 1527 1529 1533 1533 1540 1551 1553 1557 1559 1557 1557 1560 1562 1564 1566 1568 1569 1570 1572 1573 1573 1574 1575 1576 1576 1577 1577 1578 1578 1579 1579 1579 1578 1578 1578 1577
1529 1528 1528 1521 1509 1508 1509 1512 1518 1518 1522 1526 1529 1530 1531 1538 1543 1545 1552 1554 1558 1559 1559 1560 1561 1563 1566 1568 1569 1570 1572 1573 1575 1576 1577 1578 1578 1579 1579 1580 1580 1580 1580 1580 1580 1580 1580 1579 1578
1528 1528 1525 1512 1505 1506 1505 1511 1516 1522 1524 1525 1529 1531 1536 1544 1547 1550 1552 1555 1559 1559 1560 1561 1563 1565 1567 1569 1570 1572 1573 1575 1576 1577 1578 1579 1580 1581 1581 1581 1582 1582 1582 1582 1581 1581 1580 1580 1579
1530 1529 1523 1511 1508 1506 1505 1507 1514 1518 1523 1526 1529 1535 1543 1548 1549 1551 1553 1557 1560 1562 1564 1562 1564 1566 1569 1571 1572 1573 1575 1576 1577 1579 1580 1580 1581 1582 1582 1583 1583 1583 1582 1582 1582 1581 1581 1580 1580
1529 1524 1512 1508 1505 1507 1510 1513 1513 1514 1523 1524 1528 1534 1543 1548 1550 1552 1555 1559 1561 1562 1565 1564 1565 1567 1570 1571 1573 1575 1576 1577 1578 1579 1581 1581 1582 1582 1583 1583 1583 1582 1582 1582 1582 1581 1581 1581 1580
1525 1521 1513 1508 1502 1508 1511 1514 1517 1519 1525 1526 1528 1535 1547 1548 1552 1554 1557 1560 1562 1561 1565 1565 1566 1568 1570 1572 1574 1576 1577 1578 1579 1580 1581 1582 1582 1583 1583 1583 1583 1583 1583 1582 1582 1582 1581 1581 1580
1522 1512 1507 1503 1502 1504 1508 1514 1516 1517 1522 1529 1530 1532 1548 1550 1552 1555 1557 1561 1563 1562 1563 1564 1567 1568 1570 1572 1574 1576 1577 1578 1579 1580 1581 1581 1582 1583 1584 1583 1583 1583 1583 1583 1583 1582 1582 1581 1580
1521 1514 1506 1504 1502 1502 1511 1514 1517 1520 1526 1532 1532 1532 1544 1547 1550 1554 1557 1559 1563 1563 1564 1566 1567 1569 1571 1572 1574 1576 1577 1578 1579 1580 1581 1582 1583 1584 1583 1584 1584 1584 1583 1583 1583 1583 1582 1581 1581
1521 1514 1507 1499 1502 1498 1512 1513 1520 1524 1529 1531 1532 1531 1537 1542 1549 1553 1556 1559 1560 1560 1563 1564 1566 1568 1570 1573 1574 1576 1577 1578 1579 1581 1582 1582 1585 1585 1585 1584 1584 1584 1583 1583 1583 1582 1582 1581 1581
1516 1509 1501 1494 1497 1498 1508 1510 1520 1523 1527 1531 1533 1536 1539 1544 1548 1552 1556 1560 1563 1564 1566 1568 1569 1570 1572 1575 1576 1577 1580 1582 1582 1582 1581 1583 1583 1583 1584 1584 1583 1583 1583 1583 1582 1582 1582 1582 1583
1511 1505 1498 1498 1505 1507 1505 1510 1517 1518 1521 1526 1533 1536 1540 1545 1548 1552 1556 1559 1562 1565 1566 1567 1567 1569 1574 1576 1577 1578 1580 1581 1580 1579 1580 1581 1583 1584 1585 1586 1586 1584 1583 1584 1583 1583 1582 1580 1580
1508 1506 1502 1502 1508 1509 1506 1510 1515 1518 1521 1525 1532 1537 1541 1544 1548 1552 1556 1558 1560 1563 1565 1566 1568 1568 1572 1574 1575 1575 1578 1579 1580 1578 1579 1580 1583 1582 1582 1584 1583 1582 1581 1580 1580 1581 1577 1577 1576
1507 1500 1504 1507 1509 1510 1510 1511 1515 1524 1525 1528 1534 1538 1541 1545 1548 1551 1554 1557 1558 1561 1563 1566 1567 1568 1569 1571 1572 1573 1574 1576 1576 1577 1577 1578 1580 1580 1580 1579 1580 1579 1578 1577 1577 1576 1575 1574 1574
1501 1502 1505 1507 1506 1510 1511 1516 1518 1525 1527 1530 1534 1538 1541 1544 1547 1550 1553 1554 1556 1558 1560 1562 1565 1566 1568 1567 1569 1570 1572 1573 1573 1573 1574 1575 1576 1577 1577 1576 1576 1575 1575 1574 1573 1572 1571 1571 1570
1505 1504 1506 1506 1507 1507 1511 1517 1515 1520 1525 1530 1534 1537 1539 1543 1546 1549 1552 1552 1553 1555 1556 1558 1561 1562 1564 1565 1566 1568 1569 1569 1570 1570 1571 1571 1572 1573 1574 1574 1573 1573 1572 1571 1570 1569 1567 1567 1566
1502 1500 1499 1496 1505 1507 1510 1498 1507 1519 1522 1527 1532 1536 1537 1539 1543 1548 1548 1548 1550 1552 1554 1557 1559 1560 1561 1562 1563 1564 1566 1567 1567 1567 1568 1569 1569 1569 1570 1570 1569 1569 1568 1567 1566 1565 1564 1563 1560
1495 1495 1494 1492 1498 1500 1505 1493 1503 1515 1520 1524 1529 1534 1536 1538 1540 1542 1545 1547 1549 1551 1553 1555 1557 1557 1559 1560 1561 1563 1564 1565 1565 1566 1566 1566 1567 1567 1567 1566 1566 1565 1564 1563 1562 1560 1558 1557 1556
1490 1495 1487 1490 1490 1498 1497 1489 1504 1512 1516 1519 1524 1529 1533 1536 1537 1540 1543 1546 1547 1548 1550 1553 1555 1556 1558 1558 1560 1560 1562 1561 1562 1562 1562 1563 1563 1564 1564 1563 1563 1562 1560 1558 1557 1556 1555 1554 1552
1490 1488 1488 1482 1482 1494 1491 1489 1493 1508 1513 1515 1519 1524 1528 1532 1536 1537 1539 1541 1544 1546 1549 1549 1550 1552 1554 1554 1557 1557 1558 1558 1558 1560 1560 1560 1559 1560 1560 1559 1558 1558 1557 1555 1554 1554 1553 1552 1550
1494 1494 1491 1486 1485 1493 1487 1486 1484 1498 1505 1507 1513 1518 1523 1528 1530 1533 1536 1538 1540 1541 1543 1545 1547 1549 1550 1551 1553 1555 1554 1555 1555 1556 1558 1556 1555 1555 1556 1556 1554 1554 1556 1554 1552 1552 1553 1552 1549
1492 1493 1490 1489 1486 1490 1489 1485 1480 1482 1498 1503 1506 1511 1517 1520 1524 1528 1531 1534 1535 1537 1540 1542 1543 1544 1546 1547 1549 1551 1552 1553 1553 1554 1555 1552 1552 1552 1553 1553 1553 1550 1554 1553 1552 1552 1551 1553 1550
1491 1483 1488 1487 1489 1493 1480 1492 1471 1473 1484 1494 1498 1503 1507 1513 1519 1523 1527 1530 1532 1534 1537 1538 1540 1541 1543 1546 1548 1549 1552 1553 1553 1554 1553 1552 1552 1552 1553 1553 1552 1546 1553 1553 1553 1551 1550 1550 1550
1485 1478 1479 1481 1482 1484 1477 1486 1471 1461 1466 1474 1485 1490 1496 1504 1513 1518 1522 1525 1529 1531 1534 1536 1537 1539 1541 1543 1545 1547 1549 1548 1551 1552 1551 1552 1551 1552 1552 1551 1550 1550 1552 1552 1552 1550 1548 1548 1549
1477 1480 1481 1480 1479 1486 1475 1475 1470 1462 1463 1467 1470 1476 1487 1497 1508 1516 1521 1523 1526 1529 1532 1534 1535 1537 1539 1540 1542 1545 1546 1549 1550 1551 1553 1554 1554 1553 1552 1552 1551 1551 1551 1552 1551 1549 1548 1547 1546
1476 1480 1488 1487 1481 1479 1460 1464 1458 1453 1452 1459 1462 1467 1477 1492 1504 1512 1518 1520 1523 1527 1530 1532 1534 1536 1538 1539 1542 1544 1544 1547 1549 1551 1553 1554 1555 1555 1552 1552 1552 1552 1552 1551 1550 1548 1547 1545 1545
1473 1472 1477 1486 1473 1456 1439 1452 1450 1450 1463 1469 1472 1475 1477 1490 1500 1510 1517 1519 1521 1525 1529 1532 1534 1536 1539 1540 1542 1544 1544 1547 1550 1551 1553 1554 1555 1553 1553 1553 1552 1552 1552 1551 1550 1549 1547 1546 1545
1472 1477 1463 1470 1461 1461 1447 1437 1452 1457 1464 1471 1471 1473 1482 1491 1499 1508 1516 1519 1522 1525 1529 1532 1534 1537 1539 1540 1542 1543 1545 1547 1549 1550 1551 1552 1552 1552 1552 1553 1552 1551 1551 1552 1552 1550 1547 1547 1546
1475 1467 1478 1464 1483 1475 1447 1444 1437 1453 1460 1470 1475 1479 1486 1495 1502 1510 1516 1519 1522 1527 1530 1533 1536 1539 1540 1542 1544 1544 1545 1547 1549 1550 1550 1550 1550 1551 1551 1552 1553 1551 1551 1551 1551 1552 1548 1548 1547
1471 1480 1468 1464 1463 1465 1462 1447 1451 1461 1466 1469 1476 1482 1488 1495 1504 1511 1517 1520 1523 1527 1531 1535 1538 1541 1542 1544 1545 1544 1545 1546 1548 1550 1549 1550 1551 1551 1552 1551 1552 1553 1551 1551 1551 1550 1550 1548 1548
1473 1471 1467 1468 1467 1455 1450 1451 1466 1472 1474 1475 1478 1481 1489 1495 1505 1511 1518 1521 1525 1528 1532 1536 1538 1541 1543 1544 1544 1544 1544 1546 1547 1549 1551 1551 1552 1551 1554 1551 1551 1552 1552 1551 1550 1550 1550 1548 1548